Stündliche Wetter Aban

Heute, 7 März, Sonntag

Zeit Temperatur Niederschläge Wind Luftdruck Luftfeuchtigkeit
00:00 -7°C° 0 mm 4 m/S 735 mmHg 80%
01:00 -7°C° 0 mm 4 m/S 735 mmHg 80%
02:00 -7°C° 0 mm 4 m/S 735 mmHg 80%
03:00 -7°C° 0 mm 4 m/S 734 mmHg 80%
04:00 -7°C° 0 mm 4 m/S 734 mmHg 81%
05:00 -7°C° 0 mm 4 m/S 734 mmHg 82%
06:00 -7°C° 0 mm 4 m/S 734 mmHg 83%
07:00 -6°C° 0 mm 5 m/S 734 mmHg 83%
08:00 -6°C° 0 mm 5 m/S 734 mmHg 84%
09:00 -5°C° 0 mm 6 m/S 734 mmHg 84%
10:00 -5°C° 0 mm 6 m/S 734 mmHg 82%
11:00 -4°C° 0 mm 7 m/S 734 mmHg 80%
12:00 -5°C° 0 mm 8 m/S 735 mmHg 77%
13:00 -5°C° 0.2 mm 8 m/S 735 mmHg 77%
14:00 -6°C° 0.2 mm 7 m/S 735 mmHg 78%
15:00 -6°C° 0.2 mm 7 m/S 736 mmHg 78%
16:00 -8°C° 0 mm 6 m/S 736 mmHg 76%
17:00 -8°C° 0 mm 5 m/S 737 mmHg 75%
18:00 -10°C° 0 mm 4 m/S 738 mmHg 74%
19:00 -11°C° 0 mm 4 m/S 739 mmHg 77%
20:00 -11°C° 0 mm 4 m/S 739 mmHg 79%
21:00 -13°C° 0 mm 5 m/S 740 mmHg 81%
22:00 -14°C° 0 mm 4 m/S 741 mmHg 83%
23:00 -15°C° 0 mm 4 m/S 741 mmHg 85%

Morgen, 8 März, Montag

Zeit Temperatur Niederschläge Wind Luftdruck Luftfeuchtigkeit
00:00 -15°C° 0 mm 4 m/S 742 mmHg 87%
01:00 -16°C° 0 mm 4 m/S 742 mmHg 88%
02:00 -17°C° 0 mm 4 m/S 743 mmHg 89%
03:00 -17°C° 0 mm 3 m/S 743 mmHg 90%
04:00 -17°C° 0 mm 3 m/S 744 mmHg 91%
05:00 -18°C° 0 mm 3 m/S 744 mmHg 91%
06:00 -18°C° 0 mm 3 m/S 745 mmHg 92%
07:00 -16°C° 0 mm 2 m/S 745 mmHg 91%
08:00 -14°C° 0 mm 2 m/S 745 mmHg 90%
09:00 -13°C° 0 mm 2 m/S 745 mmHg 88%
10:00 -10°C° 0 mm 2 m/S 744 mmHg 86%
11:00 -9°C° 0 mm 2 m/S 744 mmHg 84%
12:00 -8°C° 0 mm 2 m/S 744 mmHg 82%
13:00 -7°C° 0 mm 2 m/S 743 mmHg 82%
14:00 -7°C° 0 mm 2 m/S 742 mmHg 81%
15:00 -7°C° 0 mm 3 m/S 741 mmHg 81%
16:00 -8°C° 0 mm 3 m/S 741 mmHg 83%
17:00 -8°C° 0 mm 3 m/S 740 mmHg 84%
18:00 -10°C° 0 mm 4 m/S 739 mmHg 86%
19:00 -9°C° 0 mm 4 m/S 738 mmHg 87%
20:00 -9°C° 0 mm 4 m/S 737 mmHg 88%
21:00 -8°C° 0 mm 4 m/S 736 mmHg 88%
22:00 -8°C° 0 mm 4 m/S 736 mmHg 88%
23:00 -7°C° 0 mm 4 m/S 735 mmHg 88%

übermorgen, 9 März, Dienstag

Zeit Temperatur Niederschläge Wind Luftdruck Luftfeuchtigkeit
00:00 -5°C° 0 mm 4 m/S 734 mmHg 88%
01:00 -5°C° 0 mm 4 m/S 734 mmHg 86%
02:00 -5°C° 0 mm 5 m/S 734 mmHg 83%
03:00 -4°C° 0 mm 5 m/S 734 mmHg 80%
04:00 -4°C° 0 mm 5 m/S 734 mmHg 81%
05:00 -5°C° 0 mm 5 m/S 735 mmHg 81%
06:00 -6°C° 0 mm 5 m/S 735 mmHg 82%
07:00 -6°C° 0 mm 6 m/S 736 mmHg 79%
08:00 -6°C° 0 mm 6 m/S 737 mmHg 76%
09:00 -8°C° 0 mm 7 m/S 738 mmHg 73%
10:00 -8°C° 0 mm 7 m/S 739 mmHg 73%
11:00 -9°C° 0 mm 7 m/S 740 mmHg 72%
12:00 -10°C° 0 mm 8 m/S 740 mmHg 72%
13:00 -9°C° 0 mm 7 m/S 741 mmHg 73%
14:00 -11°C° 0 mm 7 m/S 742 mmHg 74%
15:00 -10°C° 0 mm 6 m/S 742 mmHg 75%
16:00 -11°C° 0 mm 5 m/S 743 mmHg 78%
17:00 -13°C° 0 mm 5 m/S 744 mmHg 81%
18:00 -14°C° 0 mm 4 m/S 744 mmHg 83%
19:00 -14°C° 0 mm 3 m/S 744 mmHg 84%
20:00 -15°C° 0 mm 3 m/S 745 mmHg 85%
21:00 -16°C° 0 mm 3 m/S 745 mmHg 86%
22:00 -16°C° 0 mm 3 m/S 745 mmHg 87%
23:00 -16°C° 0 mm 2 m/S 745 mmHg 88%

10 März, Mittwoch

Zeit Temperatur Niederschläge Wind Luftdruck Luftfeuchtigkeit
00:00 -16°C° 0 mm 2 m/S 745 mmHg 89%
01:00 -16°C° 0 mm 2 m/S 745 mmHg 88%
02:00 -16°C° 0 mm 2 m/S 745 mmHg 88%
03:00 -15°C° 0 mm 2 m/S 744 mmHg 87%
04:00 -16°C° 0 mm 2 m/S 744 mmHg 87%
05:00 -16°C° 0 mm 2 m/S 744 mmHg 88%
06:00 -16°C° 0 mm 2 m/S 744 mmHg 88%
07:00 -15°C° 0 mm 3 m/S 743 mmHg 86%
08:00 -13°C° 0 mm 3 m/S 743 mmHg 85%
09:00 -12°C° 0 mm 3 m/S 742 mmHg 83%
10:00 -9°C° 0 mm 3 m/S 741 mmHg 84%
11:00 -7°C° 0 mm 3 m/S 741 mmHg 86%
12:00 -6°C° 0 mm 3 m/S 740 mmHg 87%
13:00 -5°C° 0 mm 3 m/S 740 mmHg 87%
14:00 -4°C° 0 mm 3 m/S 739 mmHg 87%
15:00 -2°C° 0 mm 3 m/S 739 mmHg 87%
16:00 -4°C° 0 mm 3 m/S 738 mmHg 88%
17:00 -4°C° 0 mm 2 m/S 738 mmHg 89%
18:00 -5°C° 0 mm 2 m/S 738 mmHg 91%
19:00 -5°C° 0 mm 2 m/S 738 mmHg 91%
20:00 -5°C° 0 mm 2 m/S 737 mmHg 91%
21:00 -5°C° 0 mm 2 m/S 737 mmHg 91%
22:00 -6°C° 0 mm 2 m/S 737 mmHg 91%
23:00 -6°C° 0 mm 2 m/S 736 mmHg 91%

11 März, Donnerstag

Zeit Temperatur Niederschläge Wind Luftdruck Luftfeuchtigkeit
00:00 -6°C° 0 mm 2 m/S 736 mmHg 91%
01:00 -7°C° 0 mm 3 m/S 735 mmHg 89%
02:00 -7°C° 0 mm 3 m/S 734 mmHg 87%
03:00 -7°C° 0 mm 3 m/S 733 mmHg 85%
04:00 -7°C° 0 mm 3 m/S 732 mmHg 84%
05:00 -7°C° 0 mm 3 m/S 731 mmHg 82%
06:00 -7°C° 0 mm 3 m/S 730 mmHg 80%
07:00 -7°C° 0 mm 4 m/S 730 mmHg 78%
08:00 -5°C° 0 mm 5 m/S 730 mmHg 76%
09:00 -4°C° 0 mm 5 m/S 730 mmHg 75%
10:00 -2°C° 0 mm 5 m/S 730 mmHg 80%
11:00 -2°C° 0 mm 6 m/S 731 mmHg 86%
12:00 -1°C° 0 mm 6 m/S 731 mmHg 91%
13:00 -1°C° 0 mm 6 m/S 732 mmHg 89%
14:00 -1°C° 0 mm 6 m/S 733 mmHg 86%
15:00 -1°C° 0 mm 6 m/S 734 mmHg 83%
16:00 -3°C° 0 mm 6 m/S 735 mmHg 81%
17:00 -4°C° 0 mm 5 m/S 736 mmHg 78%
18:00 -5°C° 0 mm 4 m/S 737 mmHg 75%
19:00 -7°C° 0 mm 4 m/S 737 mmHg 78%
20:00 -6°C° 0 mm 3 m/S 737 mmHg 81%
21:00 -7°C° 0 mm 3 m/S 738 mmHg 83%
22:00 -7°C° 0 mm 2 m/S 738 mmHg 84%
23:00 -7°C° 0 mm 2 m/S 738 mmHg 85%

12 März, Freitag

Zeit Temperatur Niederschläge Wind Luftdruck Luftfeuchtigkeit
00:00 -7°C° 0 mm 2 m/S 739 mmHg 87%
01:00 -8°C° 0 mm 2 m/S 739 mmHg 86%
02:00 -9°C° 0 mm 3 m/S 739 mmHg 86%
03:00 -10°C° 0 mm 3 m/S 739 mmHg 85%
04:00 -10°C° 0 mm 3 m/S 739 mmHg 83%
05:00 -11°C° 0 mm 4 m/S 740 mmHg 80%
06:00 -11°C° 0 mm 4 m/S 740 mmHg 78%
07:00 -12°C° 0 mm 5 m/S 740 mmHg 76%
08:00 -11°C° 0 mm 6 m/S 740 mmHg 74%
09:00 -10°C° 0 mm 6 m/S 741 mmHg 72%
10:00 -9°C° 0 mm 6 m/S 741 mmHg 71%
11:00 -9°C° 0 mm 6 m/S 740 mmHg 70%
12:00 -8°C° 0 mm 6 m/S 740 mmHg 69%
13:00 -7°C° 0 mm 5 m/S 739 mmHg 71%
14:00 -7°C° 0 mm 4 m/S 739 mmHg 73%
15:00 -7°C° 0 mm 4 m/S 738 mmHg 75%
16:00 -7°C° 0 mm 3 m/S 737 mmHg 78%
17:00 -7°C° 0 mm 2 m/S 737 mmHg 81%
18:00 -8°C° 0 mm 2 m/S 736 mmHg 85%
19:00 -8°C° 0 mm 2 m/S 735 mmHg 87%
20:00 -9°C° 0 mm 3 m/S 734 mmHg 89%
21:00 -8°C° 0 mm 3 m/S 734 mmHg 91%
22:00 -11°C° 0.4 mm 5 m/S 734 mmHg 88%
23:00 -12°C° 0.4 mm 6 m/S 734 mmHg 84%
Mehr zeigen

Wir brauchen deine Erlaubnis

Meteoprog und unser Service Anbieter werden persönliche Daten aufbewahren, so wie Cookies, Geräte Bezeichnung oder ähnliche Technologien von deinem Gerät und Prozess, so wie Persönliche Daten Inhalte und Werbungen, genauso wie social Media und den Verkehr zu analysieren.

  • Aufbewahrung und/oder Zugang zu deiner Geräte Informationen.

    Cookies, Geräte Bezeichnung oder andere Informationen, können aufbewahrt oder Zugang zu deinem Gerät erhalten, für den Grund, der oben angegeben wird.

  • Personalisierte Werbung und Inhalte, Messungen, Einblick in das Publikum und Produkt Entwicklung.

    Werbungen und Inhalte können personalisiert werden, basierend auf ein Profil. Mehr Daten können besser personalisierte Werbungen und Inhalte hinzufügen. Werbung und Inhalte können gezeigt und gemessen werden. Einblicke über das Publikum, welche die Werbung gesehen haben und den Inhalt, können abgeleitet werden. So wie Daten können genutzt werden, um es zu verbessern oder die Benutzer Erfahrung zu verbessern das System und die Software.

Wenn du “Ich stimme zu” klickst, erlaubst du uns, die Cookies zu benutzen die Geräte Bezeichnung, den Web oder ähnliche Technologien zu benutzen. Deine Settings, können in deinem Gerät bei deinem Browser geändert werden.

Für den bestimmten Zweck, berechtigten Interessen beruhen darauf, mehr als auf den Inhalt. Du kannst mehr darüber in unseren Privaten und Cookie Politik lesen.